Regional Weather Roundup
Issued by NWS

Home | Current Version | Previous Version | Graphics & Text | Print | Product List | Glossary On
Versions: 1 2 3 4 5 6 7 8 9 10 11 12 13 14 15 16 17 18 19 20 21 22 23 24 25 26 27
000
ASUS45 KCYS 250810
RWRWY

WYOMING REGIONAL WEATHER ROUNDUP
NATIONAL WEATHER SERVICE CHEYENNE WY
200 AM MDT WED MAY 25 2016

NOTE:  "FAIR" INDICATES FEW OR NO CLOUDS BELOW 12,000 FEET
WITH NO SIGNIFICANT WEATHER AND/OR OBSTRUCTIONS TO VISIBILITY.

WYZ001-250900-
YELLOWSTONE NATIONAL PARK

CITY           SKY/WX    TMP DP  RH WIND       PRES   REMARKS
LK YELLOWSTONE   N/A     33  31  92 CALM      30.01F
W YELLOWSTONE  NOT AVBL

$$
WYZ002>013-054>058-071-098>099-250900-
NORTHERN WYOMING

CITY           SKY/WX    TMP DP  RH WIND       PRES   REMARKS
JACKSON        CLOUDY    39  39 100 SE3       29.98F
CODY           MOCLDY    45  43  93 CALM      29.91S
GREYBULL       CLOUDY    52  49  89 CALM      29.88F
WORLAND        CLOUDY    49  46  90 S5        29.89F
SHERIDAN       CLOUDY    48  45  89 NW8       29.91S
BUFFALO        MOCLDY    47  41  80 NW10      29.90F
GILLETTE       CLOUDY    47  45  93 NW5       29.87F
HULETT         FOG       46  45  93 NW3       29.87S VSB 1
NEWCASTLE      FAIR      46  46 100 SE14      29.86S

$$
WYZ014>020-022>026-101>103-250900-
CENTRAL WYOMING

CITY           SKY/WX    TMP DP  RH WIND       PRES   REMARKS
BIG PINEY      CLOUDY    37  35  92 NW3       30.00F
PINEDALE       CLOUDY    36  36 100 CALM      30.01S
DUBOIS         PTSUNNY   37  32  81 W7        29.95F WCI  32
LANDER         FAIR      44  35  70 SW8       29.91R
RIVERTON       FAIR      42  39  89 N3        29.92S
CASPER         FAIR      39  35  86 CALM      29.91S
DOUGLAS          N/A    N/A N/A N/A MISG      29.90S

$$
WYZ021-027>030-104>119-250900-
SOUTHERN WYOMING

CITY           SKY/WX    TMP DP  RH WIND       PRES   REMARKS
EVANSTON       FAIR      36  32  85 SW5       30.02S WCI  32
KEMMERER         N/A     34  34 100 N5        30.02S WCI  30
FORT BRIDGER   SUNNY     39  36  87 W9        30.04S WCI  33
ROCK SPRINGS   FAIR      38  33  82 W5        30.02S WCI  34
DIXON          RAIN      46  38  75 W7        30.09R
RAWLINS        FAIR      43  34  70 SW8       30.01F
SARATOGA       PTSUNNY   41  41 100 E6        30.04F
LARAMIE        FAIR      38  32  79 E3        30.00S
CHEYENNE       FAIR      50  34  54 NW14      29.94F
TORRINGTON     FAIR      46  42  86 E6        29.90S
PINE BLUFFS    FAIR      41  39  93 CALM      29.91F

$$




USA.gov is the U.S. government's official web portal to all federal, state and local government web resources and services.